Weather History for Parsons, KS

Change the Weather History Date:

Monday, February 4, 2013

  Actual Average Record
Temperature  
Mean Temperature 47 °F -  
Max Temperature 60 °F 43 °F 75 °F (2008)
Min Temperature 32 °F 24 °F -8 °F (2011)
Degree Days  
Heating Degree Days 18    
Moisture  
Dew Point 30 °F    
Average Humidity 53    
Maximum Humidity 79    
Minimum Humidity 36    
Precipitation  
Precipitation 0.00 in - - ()
Sea Level Pressure  
Sea Level Pressure 29.91 in    
Wind  
Wind Speed 6 mph (North)    
Max Wind Speed 12 mph    
Max Gust Speed 16 mph    
Visibility 10 miles    
Events      
Averages and records for this station are not official NWS values.
T = Trace of Precipitation, MM = Missing Value Source: NWS Daily Summary

Daily Weather History Graph

Daily Weather History Graph

Search for Another Location

Airport:

Trip Planner

Search our weather history database for the weather conditions in past years. The results will help you decide how hot, cold, wet, or windy it might be!

Date:

Astronomy

Feb. 04, 2013 Rise Set
Actual Time 7:22 AM CST 5:50 PM CST
Civil Twilight 6:55 AM CST 6:17 PM CST
Nautical Twilight 6:23 AM CST 6:48 PM CST
Astronomical Twilight 5:53 AM CST 7:19 PM CST
Moon 1:57 AM CST (2/4) 12:16 PM CST (2/4)
Length of Visible Light 11h 22m
Length of Day
10h 27m
Last Quarter, 37% of the Moon is Illuminated
Feb 4
Last Quarter
Feb 10
New
Feb 17
First Quarter
Feb 25
Full
Mar 4
Last Quarter

Hourly Weather History & Observations

Time (CST) Temp. Windchill Dew Point Humidity Pressure Visibility Wind Dir Wind Speed Gust Speed Precip Events Conditions
12:52 AM 46.9 °F - 27.0 °F 46% 29.90 in 10.0 mi South 5.8 mph - N/A   Clear
1:52 AM 46.9 °F - 28.0 °F 48% 29.88 in 10.0 mi South 6.9 mph - N/A   Clear
2:52 AM 50.0 °F - 28.0 °F 43% 29.86 in 10.0 mi South 8.1 mph - N/A   Clear
5:52 AM 48.0 °F - 28.9 °F 48% 29.83 in 10.0 mi SSW 9.2 mph - N/A   Clear
6:52 AM 45.0 °F 43.5 °F 28.9 °F 53% 29.84 in 10.0 mi West 3.5 mph - N/A   Clear
7:52 AM 37.9 °F - 28.0 °F 68% 29.87 in 10.0 mi Calm Calm - N/A   Clear
8:52 AM 48.9 °F - 30.9 °F 50% 29.88 in 10.0 mi Calm Calm - N/A   Clear
9:52 AM 53.1 °F - 32.0 °F 45% 29.88 in 10.0 mi Calm Calm - N/A   Clear
10:52 AM 55.9 °F - 32.0 °F 40% 29.89 in 10.0 mi NNW 4.6 mph - N/A   Clear
11:52 AM 57.9 °F - 33.1 °F 39% 29.89 in 10.0 mi NW 8.1 mph - N/A   Clear
12:52 PM 59.0 °F - 34.0 °F 39% 29.89 in 10.0 mi North 11.5 mph - N/A   Clear
1:52 PM 57.9 °F - 33.1 °F 39% 29.88 in 10.0 mi NNE 10.4 mph 16.1 mph N/A   Clear
2:52 PM 60.1 °F - 33.1 °F 36% 29.87 in 10.0 mi North 9.2 mph - N/A   Clear
3:52 PM 57.9 °F - 30.9 °F 36% 29.88 in 10.0 mi North 9.2 mph 16.1 mph N/A   Clear
4:52 PM 55.0 °F - 33.1 °F 43% 29.90 in 10.0 mi North 10.4 mph - N/A   Clear
5:52 PM 50.0 °F - 32.0 °F 50% 29.92 in 10.0 mi NNE 3.5 mph - N/A   Clear
6:52 PM 44.1 °F 41.5 °F 32.0 °F 63% 29.95 in 10.0 mi North 4.6 mph - N/A   Clear
7:52 PM 41.0 °F - 30.9 °F 67% 29.96 in 10.0 mi Calm Calm - N/A   Clear
8:52 PM 37.0 °F 33.3 °F 28.9 °F 73% 29.98 in 10.0 mi NNE 4.6 mph - N/A   Clear
9:52 PM 34.0 °F - 28.0 °F 79% 29.99 in 10.0 mi Calm Calm - N/A   Clear
10:52 PM 34.0 °F 31.0 °F 28.0 °F 79% 30.00 in 10.0 mi NNE 3.5 mph - N/A   Clear
11:52 PM 32.0 °F - 26.1 °F 79% 29.99 in 10.0 mi Calm Calm - N/A   Clear